Starlink 30882

operational
NORAD ID: 58379 Int'l Des: 2023-178 Owner: SPXS Country: US Constellation: starlink
LEOCIRCULAR

关于 Starlink 30882

正在加载描述...

实时位置

正在加载3D地球...

即将过境

高度历史

Altitude vs Time

uPlot chart will show altitude changes over time

两行轨道根数

1 58379U 23178F 25303.86006174 .00006583 00000-0 23415-3 0 9998
2 58379 53.1589 244.1396 0001252 79.1279 280.9863 15.30205257110018
Epoch: Oct 30, 2025 • Age: 12 hours

当前状态

高度 489.2 km
速度 7.62 km/s
星下点 -40.54°S, 28.06°E
发射日期 Nov 20, 2023
运行时间 1.9 years
类型 internet

技术详情

分类 Payload
质量 730.00 kg
干质量 700.00 kg
总质量 730.00 kg
长度 0.30 m
直径 4.10 m
跨度 29.00 m
形状 Box + pan
制造商 SPXS
平台类型 Starlink V2M
阶段状态 In Orbit
所有者/国家 SPXS/US

大型星座

Loading constellations...